Flag for Norway Weather past 2 weeks in Kongsvinger, Norway

Now
19 °F

Sunny.


Feels Like: 14 °F
Forecast: 21 / 31 °F
Wind: 3 mph from Northeast

Location: Oslo Gardermoen Airport

Current Time: Dec 20, 2014 at 3:28:49 PM

Latest Report: Dec 20, 2014 at 2:50 PM


Visibility: 10 mi

Pressure: 29.27 "Hg

Humidity: 93%

Dew point: 18 °F

Location of KongsvingerLocation

Historic Weather in Kongsvinger — Graph

°F

Kongsvinger temperature yesterday

Maximum temperature yesterday: 28 °F (at 12:20 AM)
Minimum temperature yesterday: 19 °F (at 8:20 PM)
Average temperature yesterday: 25 °F

Past Weeks' High & Low Weather Summary

 TemperatureHumidityPressure
High43 °F (Dec 14, 11:20 PM)100% (Dec 5, 3:20 PM)29.95 "Hg (Dec 5, 3:20 PM)
Low14 °F (Dec 17, 8:20 AM)51% (Dec 15, 7:50 PM)28.97 "Hg (Dec 12, 6:20 PM)
Average29 °F92%29.34 "Hg
* Reported Dec 5 2:20 PM — Dec 20 2:20 PM, Kongsvinger, Weather by CustomWeather, © 2014

Note: Actual official high and low records may vary slightly from our data, if they occured in-between our weather recording intervals... More about our weather records

Advertising

Kongsvinger weather history for previous 24 hours

 ConditionsComfort  
Time TempWeatherWind HumidityBarometerVisibility
2:20 PM
Dec 20
19 °FScattered clouds.3 mph93%29.24 "HgN/A
1:50 PM21 °FScattered clouds.2 mph93%29.24 "HgN/A
1:20 PM19 °FIce fog.2 mph93%29.21 "Hg1 mi
12:50 PM19 °FIce fog.3 mph93%29.21 "Hg0 mi
12:20 PM18 °FSleet. Cloudy.6 mph93%29.18 "HgN/A
11:50 AM19 °FScattered clouds.3 mph93%29.18 "HgN/A
11:20 AM16 °FScattered clouds.3 mph93%29.15 "HgN/A
10:50 AM16 °FScattered clouds.3 mph93%29.15 "HgN/A
10:20 AM18 °FScattered clouds.2 mph93%29.15 "HgN/A
9:50 AM19 °FScattered clouds.No wind93%29.12 "HgN/A
9:20 AM19 °FScattered clouds.1 mph93%29.12 "HgN/A
8:50 AM18 °FPassing clouds.2 mph93%29.12 "HgN/A
8:20 AM16 °FPassing clouds.2 mph93%29.12 "HgN/A
7:50 AM16 °FClear.No wind93%29.09 "Hg10 mi
7:20 AM18 °FClear.No wind93%29.09 "Hg10 mi
6:50 AM16 °FClear.No wind93%29.09 "Hg10 mi
6:20 AM18 °FPassing clouds.3 mph93%29.09 "HgN/A
5:50 AM16 °FClear.No wind93%29.09 "Hg10 mi
5:20 AM16 °FClear.No wind93%29.09 "Hg10 mi
4:50 AM18 °FClear.2 mph93%29.09 "Hg10 mi
4:20 AM16 °FClear.No wind93%29.06 "Hg10 mi
3:50 AM18 °FClear.1 mph93%29.09 "Hg10 mi
3:20 AM19 °FLight fog.No wind100%29.06 "HgN/A
2:50 AM19 °FLight fog.No wind100%29.06 "HgN/A
2:20 AM21 °FPassing clouds.2 mph93%29.06 "HgN/A
1:50 AM21 °FPassing clouds.3 mph93%29.06 "HgN/A
1:20 AM27 °FClear.2 mph93%29.06 "Hg10 mi
12:50 AM23 °FClear.3 mph100%29.03 "Hg10 mi
12:20 AM25 °FClear.2 mph93%29.06 "Hg10 mi
11:50 PM
Dec 19
23 °FClear.No wind100%29.06 "Hg10 mi
11:20 PM21 °FPassing clouds.5 mph93%29.06 "HgN/A
10:50 PM19 °FCold.5 mph93%29.06 "HgN/A
9:50 PM19 °FPassing clouds.1 mph93%29.03 "HgN/A
9:20 PM19 °FPassing clouds.No wind93%29.06 "HgN/A
8:50 PM21 °FPassing clouds.3 mph100%29.06 "HgN/A
8:20 PM19 °FPassing clouds.No wind93%29.06 "HgN/A
7:50 PM21 °FPassing clouds.1 mph93%29.06 "HgN/A
7:20 PM25 °FLight fog.3 mph93%29.03 "HgN/A
6:50 PM21 °FCold.No wind100%29.03 "HgN/A
6:20 PM23 °FPassing clouds.2 mph93%29.03 "HgN/A
5:50 PM23 °FPassing clouds.No wind100%29.03 "HgN/A
5:20 PM27 °FPassing clouds.2 mph100%29.03 "HgN/A
4:50 PM23 °FPassing clouds.3 mph100%29.03 "HgN/A
4:20 PM25 °FPassing clouds.2 mph93%29.03 "HgN/A
3:50 PM27 °FPassing clouds.1 mph93%29.03 "HgN/A
3:20 PM28 °FPassing clouds.3 mph93%29.03 "HgN/A
Weather by CustomWeather, © 2014

See weather overviewHow to use our weather pages